When you browse on this site, cookies collect data to enhance your experience and personalize the content and advertising you see.
Visit our Privacy Policy to learn more. By continuing to use the site, you agree to this use of cookies and data.
EN

Hourly Weather Tkaczew

Today, 12 August, Wednesday

Time Temperature Precipitation Wind Pressure Humidity
00:00 +18°C° 0 mm 3 mps 755 mmHg 73%
01:00 +17°C° 0 mm 3 mps 755 mmHg 75%
02:00 +17°C° 0 mm 3 mps 755 mmHg 77%
03:00 +16°C° 0 mm 3 mps 755 mmHg 79%
04:00 +16°C° 0 mm 3 mps 755 mmHg 81%
05:00 +16°C° 0 mm 3 mps 755 mmHg 79%
06:00 +17°C° 0 mm 3 mps 755 mmHg 77%
07:00 +18°C° 0 mm 3 mps 755 mmHg 74%
08:00 +20°C° 0 mm 3 mps 755 mmHg 68%
09:00 +21°C° 0 mm 3 mps 755 mmHg 61%
10:00 +23°C° 0 mm 4 mps 755 mmHg 55%
11:00 +25°C° 0 mm 3 mps 755 mmHg 51%
12:00 +26°C° 0 mm 3 mps 755 mmHg 47%
13:00 +26°C° 0 mm 3 mps 755 mmHg 43%
14:00 +26°C° 0 mm 3 mps 755 mmHg 43%
15:00 +26°C° 0 mm 3 mps 754 mmHg 43%
16:00 +26°C° 0 mm 3 mps 754 mmHg 44%
17:00 +25°C° 0 mm 3 mps 754 mmHg 49%
18:00 +23°C° 0 mm 2 mps 754 mmHg 55%
19:00 +21°C° 0 mm 2 mps 754 mmHg 61%
20:00 +20°C° 0 mm 2 mps 754 mmHg 62%
21:00 +19°C° 0 mm 2 mps 754 mmHg 62%
22:00 +19°C° 0 mm 2 mps 754 mmHg 63%
23:00 +18°C° 0 mm 2 mps 754 mmHg 65%

Tomorrow, 13 August, Thursday

Time Temperature Precipitation Wind Pressure Humidity
00:00 +18°C° 0 mm 2 mps 754 mmHg 67%
01:00 +17°C° 0 mm 2 mps 754 mmHg 69%
02:00 +17°C° 0 mm 2 mps 754 mmHg 71%
03:00 +16°C° 0 mm 2 mps 753 mmHg 72%
04:00 +16°C° 0 mm 2 mps 753 mmHg 74%
05:00 +17°C° 0 mm 2 mps 753 mmHg 72%
06:00 +18°C° 0 mm 2 mps 753 mmHg 70%
07:00 +19°C° 0 mm 2 mps 753 mmHg 68%
08:00 +21°C° 0 mm 2 mps 753 mmHg 62%
09:00 +24°C° 0 mm 2 mps 753 mmHg 56%
10:00 +25°C° 0 mm 2 mps 753 mmHg 49%
11:00 +26°C° 0 mm 2 mps 752 mmHg 46%
12:00 +27°C° 0 mm 2 mps 752 mmHg 43%
13:00 +27°C° 0 mm 2 mps 752 mmHg 39%
14:00 +27°C° 0 mm 2 mps 752 mmHg 39%
15:00 +27°C° 0 mm 2 mps 751 mmHg 39%
16:00 +27°C° 0 mm 2 mps 751 mmHg 39%
17:00 +26°C° 0 mm 2 mps 751 mmHg 45%
18:00 +24°C° 0 mm 2 mps 751 mmHg 50%
19:00 +21°C° 0 mm 3 mps 751 mmHg 56%
20:00 +21°C° 0 mm 3 mps 751 mmHg 57%
21:00 +20°C° 0 mm 3 mps 752 mmHg 58%
22:00 +19°C° 0 mm 3 mps 752 mmHg 59%
23:00 +19°C° 0 mm 3 mps 752 mmHg 60%

Day after tomorrow, 14 August, Friday

Time Temperature Precipitation Wind Pressure Humidity
00:00 +18°C° 0 mm 3 mps 752 mmHg 62%
01:00 +18°C° 0 mm 3 mps 752 mmHg 64%
02:00 +17°C° 0 mm 3 mps 752 mmHg 65%
03:00 +17°C° 0 mm 2 mps 751 mmHg 67%
04:00 +17°C° 0 mm 2 mps 751 mmHg 68%
05:00 +18°C° 0 mm 2 mps 751 mmHg 67%
06:00 +19°C° 0 mm 2 mps 751 mmHg 65%
07:00 +20°C° 0 mm 2 mps 751 mmHg 63%
08:00 +22°C° 0 mm 3 mps 751 mmHg 58%
09:00 +24°C° 0 mm 3 mps 751 mmHg 52%
10:00 +26°C° 0 mm 3 mps 752 mmHg 47%
11:00 +26°C° 0 mm 4 mps 751 mmHg 45%
12:00 +27°C° 0 mm 4 mps 751 mmHg 43%
13:00 +28°C° 0 mm 4 mps 750 mmHg 41%
14:00 +28°C° 0 mm 4 mps 750 mmHg 41%
15:00 +27°C° 0 mm 4 mps 750 mmHg 42%
16:00 +27°C° 0 mm 3 mps 750 mmHg 42%
17:00 +26°C° 0 mm 3 mps 750 mmHg 47%
18:00 +24°C° 0 mm 3 mps 750 mmHg 53%
19:00 +22°C° 0 mm 3 mps 750 mmHg 59%
20:00 +21°C° 0 mm 3 mps 750 mmHg 60%
21:00 +21°C° 0 mm 3 mps 751 mmHg 62%
22:00 +20°C° 0 mm 3 mps 751 mmHg 64%
23:00 +20°C° 0 mm 3 mps 751 mmHg 66%

15 August, Saturday

Time Temperature Precipitation Wind Pressure Humidity
00:00 +19°C° 0 mm 3 mps 751 mmHg 68%
01:00 +19°C° 0 mm 3 mps 751 mmHg 69%
02:00 +19°C° 0 mm 3 mps 751 mmHg 71%
03:00 +18°C° 0 mm 3 mps 751 mmHg 73%
04:00 +18°C° 0 mm 2 mps 751 mmHg 75%
05:00 +18°C° 0 mm 3 mps 751 mmHg 74%
06:00 +19°C° 0 mm 3 mps 751 mmHg 72%
07:00 +19°C° 0 mm 3 mps 751 mmHg 71%
08:00 +20°C° 0 mm 4 mps 751 mmHg 66%
09:00 +22°C° 0 mm 4 mps 752 mmHg 61%
10:00 +23°C° 0 mm 4 mps 752 mmHg 56%
11:00 +25°C° 0 mm 4 mps 752 mmHg 53%
12:00 +25°C° 0 mm 5 mps 751 mmHg 51%
13:00 +26°C° 0 mm 5 mps 751 mmHg 48%
14:00 +26°C° 0 mm 5 mps 751 mmHg 49%
15:00 +26°C° 0 mm 5 mps 751 mmHg 49%
16:00 +26°C° 0 mm 5 mps 751 mmHg 49%
17:00 +23°C° 0 mm 4 mps 751 mmHg 54%
18:00 +22°C° 0 mm 4 mps 751 mmHg 60%
19:00 +20°C° 0 mm 3 mps 751 mmHg 65%
20:00 +20°C° 0 mm 3 mps 751 mmHg 67%
21:00 +19°C° 0 mm 3 mps 751 mmHg 68%
22:00 +19°C° 0 mm 3 mps 752 mmHg 70%
23:00 +18°C° 0 mm 3 mps 752 mmHg 71%

16 August, Sunday

Time Temperature Precipitation Wind Pressure Humidity
00:00 +18°C° 0 mm 3 mps 752 mmHg 72%
01:00 +18°C° 0 mm 3 mps 752 mmHg 73%
02:00 +18°C° 0 mm 3 mps 752 mmHg 76%
03:00 +17°C° 0 mm 3 mps 752 mmHg 79%
04:00 +16°C° 0 mm 3 mps 751 mmHg 82%
05:00 +17°C° 0 mm 4 mps 752 mmHg 78%
06:00 +18°C° 0 mm 4 mps 752 mmHg 74%
07:00 +19°C° 0 mm 5 mps 752 mmHg 71%
08:00 +20°C° 0 mm 5 mps 752 mmHg 64%
09:00 +22°C° 0 mm 5 mps 752 mmHg 58%
10:00 +24°C° 0 mm 6 mps 752 mmHg 52%
11:00 +24°C° 0 mm 6 mps 751 mmHg 52%
12:00 +25°C° 0 mm 5 mps 751 mmHg 51%
13:00 +25°C° 0 mm 5 mps 751 mmHg 51%
14:00 +25°C° 0 mm 5 mps 751 mmHg 54%
15:00 +23°C° 0 mm 4 mps 750 mmHg 57%
16:00 +23°C° 0 mm 4 mps 750 mmHg 59%
17:00 +22°C° 0 mm 3 mps 750 mmHg 63%
18:00 +21°C° 0 mm 3 mps 750 mmHg 67%
19:00 +21°C° 0 mm 3 mps 750 mmHg 71%
20:00 +20°C° 0 mm 3 mps 750 mmHg 73%
21:00 +19°C° 0 mm 3 mps 750 mmHg 76%
22:00 +19°C° 0 mm 3 mps 750 mmHg 79%
23:00 +18°C° 0 mm 3 mps 749 mmHg 82%

17 August, Monday

Time Temperature Precipitation Wind Pressure Humidity
00:00 +18°C° 0 mm 3 mps 749 mmHg 85%
01:00 +17°C° 0 mm 2 mps 749 mmHg 88%
02:00 +17°C° 0 mm 2 mps 749 mmHg 91%
03:00 +17°C° 0 mm 2 mps 749 mmHg 93%
04:00 +17°C° 0 mm 2 mps 749 mmHg 95%
05:00 +18°C° 0 mm 2 mps 748 mmHg 91%
06:00 +20°C° 0 mm 1 mps 748 mmHg 87%
07:00 +21°C° 0 mm 1 mps 748 mmHg 84%
08:00 +23°C° 0 mm 1 mps 748 mmHg 75%
09:00 +25°C° 0 mm 1 mps 748 mmHg 67%
10:00 +27°C° 0 mm 1 mps 748 mmHg 59%
11:00 +28°C° 0 mm 1 mps 747 mmHg 53%
12:00 +29°C° 0 mm 1 mps 747 mmHg 47%
13:00 +30°C° 0 mm 2 mps 747 mmHg 42%
14:00 +30°C° 0 mm 1 mps 747 mmHg 41%
15:00 +30°C° 0 mm 1 mps 746 mmHg 40%
16:00 +30°C° 0 mm 1 mps 746 mmHg 39%
17:00 +29°C° 0 mm 1 mps 746 mmHg 44%
18:00 +27°C° 0 mm 1 mps 746 mmHg 48%
19:00 +26°C° 0 mm 1 mps 746 mmHg 52%
20:00 +25°C° 0 mm 1 mps 746 mmHg 55%
21:00 +24°C° 0 mm 1 mps 746 mmHg 58%
22:00 +23°C° 0 mm 2 mps 746 mmHg 60%
23:00 +23°C° 0 mm 2 mps 746 mmHg 63%
Show more